Wind_Speed
19 25 28 27 23 25 29 27 25 24 20 16 15 13 14 14 14 17 17 22 23 24 25 19 21 27 27 31 31 28 25 24
19 25 30 19 20 25 29 28 27 26 22 20 17 15 15 14 14 16 19 20 22 26 26 26 28 32 32 34 32 32 26 31
19 22 26 18 21 25 28 28 29 27 23 20 18 15 14 15 14 13 18 21 23 26 26 25 31 29 30 33 32 28 26 28
17 18 24 22 22 25 28 29 29 26 23 20 17 14 11 13 14 14 18 20 19 21 23 27 27 34 35 37 34 30 23 27
17 18 20 25 24 25 27 28 29 27 25 22 21 19 15 15 16 15 13 12 14 17 21 28 34 32 33 38 36 31 28 25
16 20 19 28 28 25 27 27 28 27 26 22 21 18 14 14 14 11 13 9 9 14 22 30 33 32 40 40 36 31 31 30
9 10 17 23 28 25 25 27 29 27 27 23 21 18 14 14 12 14 10 8 6 9 14 24 34 31 35 41 43 40 32 29
15 9 14 18 22 25 26 28 27 29 28 24 20 17 16 14 14 14 13 9 9 8 11 18 26 31 37 36 40 40 34 28
12 17 11 12 15 23 23 25 25 27 28 23 20 17 16 13 15 14 13 11 10 9 11 18 20 26 31 32 33 35 27 26
15 19 7 8 14 20 21 23 24 27 27 23 19 18 15 15 15 14 13 12 12 15 11 16 21 24 26 31 26 24 21 18
16 18 20 7 19 18 18 20 23 26 23 20 18 17 15 15 15 14 14 12 14 15 18 15 18 22 24 27 27 23 24 23
14 17 26 14 14 15 18 21 20 22 21 19 19 17 16 15 15 14 12 10 11 12 17 20 21 22 24 25 26 28 28 25
13 15 20 15 7 13 16 20 21 18 19 18 18 16 15 16 14 11 10 10 10 12 13 17 22 25 27 28 25 26 27 27
13 15 15 18 18 6 10 14 17 15 15 15 16 18 15 14 12 9 13 13 9 9 11 12 15 22 26 28 26 23 30 27
12 13 13 19 20 19 20 8 14 14 14 13 12 13 15 15 11 7 9 9 8 9 8 9 11 15 20 24 25 23 23 22
12 12 12 17 20 21 21 21 19 17 21 17 14 13 13 13 10 6 12 10 7 6 9 8 9 10 9 13 17 22 21 23
11 12 13 14 19 19 18 20 21 19 23 19 15 16 17 17 16 16 19 16 15 14 13 11 10 7 5 12 12 6 9 14
11 12 12 16 17 16 18 18 18 22 24 21 20 20 22 20 18 19 19 18 15 16 14 12 13 9 5 2 10 6 4 2
9 9 16 17 16 15 16 21 21 22 25 23 20 23 23 23 26 24 23 21 21 21 19 18 19 22 14 7 6 9 12 12
Wind_Direction
237 230 225 222 220 204 193 190 195 192 187 188 190 189 200 203 200 201 201 208 209 209 204 207 206 194 184 181 181 184 208 159
237 232 227 213 214 193 190 187 192 189 180 183 187 182 200 199 200 203 208 210 214 221 228 227 209 184 189 188 184 191 211 165
229 235 224 195 204 195 189 189 190 183 187 187 188 187 202 208 204 209 221 229 229 225 222 210 189 186 186 186 182 186 205 172
235 228 227 185 207 194 194 190 192 189 190 182 178 184 194 204 204 209 216 214 213 215 216 217 197 190 189 189 186 184 186 188
238 236 229 191 201 197 198 190 191 190 189 185 181 185 191 206 209 211 208 214 223 225 216 212 215 201 187 190 184 184 184 184
234 234 238 232 190 197 196 188 188 187 190 187 181 190 197 196 198 202 201 201 222 233 232 226 217 211 197 193 187 184 193 187
296 290 274 230 187 187 186 186 188 182 188 186 187 189 188 174 180 193 182 196 200 240 243 225 208 202 186 188 190 190 198 198
327 290 262 248 170 180 182 180 182 183 186 184 186 184 190 190 187 190 178 181 191 207 218 205 194 188 188 184 184 192 199 196
331 329 282 234 184 185 169 174 177 177 186 180 182 182 188 188 184 185 183 179 183 192 197 196 182 184 186 186 184 190 192 192
345 337 290 222 181 145 162 172 177 179 183 177 178 181 179 185 177 173 174 184 195 195 183 191 189 185 179 177 176 170 167 183
357 346 333 226 131 149 163 179 180 183 177 173 175 177 179 183 179 181 184 184 179 186 191 187 185 187 176 176 181 184 195 202
5 350 342 76 128 152 167 182 173 185 172 173 172 175 167 171 172 180 188 187 186 182 184 196 195 188 187 181 184 189 197 202
21 3 354 3 108 168 186 163 167 180 176 172 171 169 162 161 171 171 179 182 175 183 182 194 202 200 199 195 190 195 196 202
30 13 7 360 3 117 118 144 160 171 163 168 172 161 166 163 167 175 177 166 167 163 172 184 194 198 197 202 200 202 206 209
39 22 10 5 3 22 29 149 153 152 151 150 155 158 164 159 161 155 145 147 157 172 168 172 194 200 209 215 211 213 214 220
37 31 14 11 360 23 26 41 60 111 104 95 88 104 130 133 134 118 149 147 159 170 180 176 170 167 173 186 207 216 215 223
38 40 26 18 9 17 30 30 50 75 86 80 81 89 101 100 104 104 108 109 104 108 106 115 114 109 179 201 194 162 217 217
40 42 37 23 18 19 34 41 47 66 71 72 80 81 82 88 91 98 95 93 100 92 82 76 60 38 36 214 232 208 189 105
23 43 43 27 22 28 46 50 51 59 66 66 68 82 77 79 83 79 86 91 86 84 77 69 68 66 74 86 122 125 99 79
Height
664 667 669 673 678 684 694 703 711 717 721 726 730 733 737 741 743 745 749 752 756 759 762 766 771 774 779 784 787 794 798 800
662 663 665 667 675 680 689 698 706 712 716 722 726 729 735 738 740 741 745 749 752 755 759 763 767 769 775 780 787 792 794 797
656 658 659 666 674 678 685 694 701 707 713 717 722 725 731 735 737 738 742 745 749 752 756 759 762 766 772 777 782 789 792 794
651 653 655 662 671 675 681 689 697 704 709 713 718 723 729 732 733 736 739 742 745 748 751 755 758 760 766 771 776 783 789 793
647 648 650 654 665 671 679 684 693 700 705 709 711 717 722 727 729 732 736 739 741 744 746 750 755 758 760 766 771 778 784 789
644 645 646 647 655 666 674 681 688 695 701 705 709 714 717 722 726 730 734 736 737 740 741 743 748 751 752 761 768 774 781 785
640 640 640 640 645 660 671 679 684 693 699 702 705 710 714 718 723 728 731 734 734 735 737 737 740 744 748 753 761 771 778 782
652 645 642 640 640 656 668 676 681 689 696 698 703 707 713 715 721 726 729 731 733 734 735 737 737 741 745 751 758 767 774 779
667 655 643 639 642 654 668 677 682 688 693 695 701 705 710 713 718 723 726 729 731 733 735 737 740 742 746 751 754 763 769 776
671 661 642 644 648 663 671 679 683 688 689 693 699 704 708 712 717 721 725 728 730 732 735 738 741 744 746 749 754 759 765 774
678 671 662 652 657 668 675 680 683 688 687 694 700 703 707 712 716 720 723 726 728 732 734 739 742 744 748 752 757 761 768 773
687 683 673 662 665 671 676 681 683 687 689 695 699 703 707 711 715 719 722 725 728 731 733 737 741 744 749 753 757 762 766 771
693 693 686 673 672 675 676 678 684 689 692 696 700 703 707 711 714 719 722 725 728 730 733 736 739 743 746 751 756 759 763 768
697 699 696 692 685 678 679 684 687 690 693 698 701 703 708 711 715 719 722 725 728 731 733 736 738 742 745 750 754 759 761 766
705 707 706 703 698 690 686 688 688 692 695 699 703 705 708 712 716 719 722 726 729 731 734 736 739 742 745 748 752 756 760 764
712 713 713 711 708 698 695 692 691 693 695 701 704 706 708 712 716 718 723 726 729 732 735 738 740 740 743 746 750 754 758 761
721 720 720 718 715 708 705 703 700 699 699 705 708 710 710 713 716 719 721 726 729 732 734 736 738 741 743 745 749 752 753 756
728 728 726 726 723 720 714 711 710 706 706 710 712 714 715 718 720 722 724 727 731 733 737 740 742 743 744 745 746 749 751 753
737 735 732 732 731 728 722 718 718 714 713 717 719 718 721 723 723 728 731 733 736 738 741 744 746 746 746 746 746 748 751 754